,,PA_Meas_PMT16A,,PR_Meas_QMR101_102,,RH_Meas_QMH101,,SR_Meas_QMS101,,TA_Meas_QMH101,,GenWind,,GenWind,
time,status,PA,status,PR,status,RH,status,SR,status,TA,status,DirAvg,status,SpdAvg,
2012-01-27, 00:00:04,VALID,916.93,VALID,0,VALID,94.5609,VALID,0,VALID,19.5663,VALID,104,VALID,0.260156,
2012-01-27, 00:01:04,VALID,916.961,VALID,0,VALID,94.6676,VALID,0,VALID,19.5468,VALID,104,VALID,0.335156,
2012-01-27, 00:02:04,VALID,916.952,VALID,0,VALID,94.6752,VALID,0,VALID,19.4868,VALID,144,VALID,0.401563,
2012-01-27, 00:03:04,VALID,916.934,VALID,0,VALID,94.6371,VALID,0,VALID,19.4883,VALID,144,VALID,1.02461,
2012-01-27, 00:04:04,VALID,916.93,VALID,0,VALID,94.7209,VALID,0,VALID,19.4688,VALID,144,VALID,0.800781,
2012-01-27, 00:05:04,VALID,916.944,VALID,0,VALID,94.7133,VALID,0,VALID,19.4493,VALID,144,VALID,0.713281,
2012-01-27, 00:06:04,VALID,916.904,VALID,0,VALID,94.8505,VALID,0,VALID,19.4283,VALID,144,VALID,0.178906,
2012-01-27, 00:07:04,VALID,916.877,VALID,0,VALID,94.9268,VALID,0,VALID,19.4298,VALID,144,VALID,0.611328,
2012-01-27, 00:08:04,VALID,916.865,VALID,0,VALID,94.9801,VALID,0,VALID,19.4103,VALID,144,VALID,0.103125,
2012-01-27, 00:09:04,VALID,916.851,VALID,0,VALID,94.9725,VALID,0,VALID,19.3713,VALID,144,VALID,0.705078,
2012-01-27, 00:10:04,VALID,916.822,VALID,0,VALID,95.0488,VALID,0,VALID,19.3323,VALID,144,VALID,0.677344,
2012-01-27, 00:11:04,VALID,916.831,VALID,0,VALID,95.1707,VALID,0,VALID,19.2918,VALID,144,VALID,0.358984,
2012-01-27, 00:12:04,VALID,916.831,VALID,0,VALID,95.3156,VALID,0,VALID,19.2738,VALID,144,VALID,0.646875,
2012-01-27, 00:13:04,VALID,916.785,VALID,0,VALID,95.3537,VALID,0,VALID,19.2334,VALID,144,VALID,0.6875,
2012-01-27, 00:14:04,VALID,916.794,VALID,0,VALID,95.4299,VALID,0,VALID,19.2139,VALID,144,VALID,1.31758,
2012-01-27, 00:15:04,VALID,916.749,VALID,0,VALID,95.4604,VALID,0,VALID,19.1958,VALID,144,VALID,1.02891,
2012-01-27, 00:16:04,VALID,916.702,VALID,0,VALID,95.5367,VALID,0,VALID,19.1359,VALID,136,VALID,1.14492,
2012-01-27, 00:17:04,VALID,916.661,VALID,0,VALID,95.6434,VALID,0,VALID,19.1178,VALID,147,VALID,1.21016,
2012-01-27, 00:18:04,VALID,916.644,VALID,0,VALID,95.7501,VALID,0,VALID,19.1164,VALID,124,VALID,1.33359,
2012-01-27, 00:19:04,VALID,916.643,VALID,0,VALID,95.7806,VALID,0,VALID,19.1359,VALID,153,VALID,1.27578,
2012-01-27, 00:20:04,VALID,916.626,VALID,0,VALID,95.834,VALID,0,VALID,19.1958,VALID,142,VALID,1.05547,
2012-01-27, 00:21:04,VALID,916.634,VALID,0,VALID,95.7958,VALID,0,VALID,19.2139,VALID,149,VALID,1.24141,
2012-01-27, 00:22:04,VALID,916.612,VALID,0,VALID,95.7654,VALID,0,VALID,19.2543,VALID,138,VALID,1.66562,
2012-01-27, 00:23:04,VALID,916.606,VALID,0,VALID,95.6586,VALID,0,VALID,19.2528,VALID,142,VALID,2.3457,
2012-01-27, 00:24:04,VALID,916.618,VALID,0,VALID,95.5748,VALID,0,VALID,19.3128,VALID,137,VALID,1.44961,
2012-01-27, 00:25:04,VALID,916.578,VALID,0,VALID,95.4985,VALID,0,VALID,19.3308,VALID,160,VALID,1.94687,
2012-01-27, 00:26:04,VALID,916.586,VALID,0,VALID,95.4071,VALID,0,VALID,19.3518,VALID,166,VALID,0.975391,
2012-01-27, 00:27:04,VALID,916.604,VALID,0,VALID,95.2851,VALID,0,VALID,19.3713,VALID,157,VALID,1.46484,
2012-01-27, 00:28:04,VALID,916.611,VALID,0,VALID,95.247,VALID,0,VALID,19.3323,VALID,142,VALID,1.125,
2012-01-27, 00:29:04,VALID,916.626,VALID,0,VALID,95.2317,VALID,0,VALID,19.3113,VALID,142,VALID,0.917578,
2012-01-27, 00:30:04,VALID,916.591,VALID,0,VALID,95.2012,VALID,0,VALID,19.3113,VALID,146,VALID,1.57617,
2012-01-27, 00:31:04,VALID,916.585,VALID,0,VALID,95.2088,VALID,0,VALID,19.2918,VALID,167,VALID,1.69062,
2012-01-27, 00:32:04,VALID,916.546,VALID,0,VALID,95.2165,VALID,0,VALID,19.2918,VALID,140,VALID,1.10508,
2012-01-27, 00:33:04,VALID,916.548,VALID,0,VALID,95.2851,VALID,0,VALID,19.3128,VALID,145,VALID,1.26797,
2012-01-27, 00:34:04,VALID,916.521,VALID,0,VALID,95.2927,VALID,0,VALID,19.3128,VALID,119,VALID,1.52148,
2012-01-27, 00:35:04,VALID,916.538,VALID,0,VALID,95.2622,VALID,0,VALID,19.3323,VALID,151,VALID,1.31719,
2012-01-27, 00:36:04,VALID,916.53,VALID,0,VALID,95.2088,VALID,0,VALID,19.3323,VALID,137,VALID,1.72773,
2012-01-27, 00:37:04,VALID,916.53,VALID,0,VALID,95.1555,VALID,0,VALID,19.3113,VALID,132,VALID,1.47695,
2012-01-27, 00:38:04,VALID,916.515,VALID,0,VALID,95.1555,VALID,0,VALID,19.3533,VALID,169,VALID,1.10469,
2012-01-27, 00:39:04,VALID,916.544,VALID,0,VALID,95.1631,VALID,0,VALID,19.3323,VALID,176,VALID,1.04141,
2012-01-27, 00:40:04,VALID,916.555,VALID,0,VALID,95.0945,VALID,0,VALID,19.4103,VALID,154,VALID,2.37695,
2012-01-27, 00:41:04,VALID,916.586,VALID,0,VALID,94.9649,VALID,0,VALID,19.4103,VALID,161,VALID,1.44883,
2012-01-27, 00:42:04,VALID,916.58,VALID,0,VALID,94.881,VALID,0,VALID,19.4103,VALID,158,VALID,1.60039,
2012-01-27, 00:43:04,VALID,916.635,VALID,0,VALID,94.8353,VALID,0,VALID,19.3713,VALID,173,VALID,1.90469,
2012-01-27, 00:44:04,VALID,916.606,VALID,0,VALID,94.8658,VALID,0,VALID,19.3518,VALID,172,VALID,1.87266,
2012-01-27, 00:45:04,VALID,916.628,VALID,0,VALID,94.9268,VALID,0,VALID,19.3323,VALID,166,VALID,1.93867,
2012-01-27, 00:46:04,VALID,916.655,VALID,0,VALID,95.0183,VALID,0,VALID,19.3323,VALID,159,VALID,1.77266,
2012-01-27, 00:47:04,VALID,916.673,VALID,0,VALID,95.0106,VALID,0,VALID,19.3113,VALID,143,VALID,1.1375,
2012-01-27, 00:48:04,VALID,916.676,VALID,0,VALID,95.0716,VALID,0,VALID,19.2918,VALID,145,VALID,1.61914,
2012-01-27, 00:49:04,VALID,916.627,VALID,0,VALID,95.0259,VALID,0,VALID,19.2918,VALID,161,VALID,1.22773,
2012-01-27, 00:50:04,VALID,916.607,VALID,0,VALID,95.064,VALID,0,VALID,19.3128,VALID,160,VALID,1.13711,
2012-01-27, 00:51:04,VALID,916.565,VALID,0,VALID,95.0259,VALID,0,VALID,19.3323,VALID,165,VALID,1.98008,
2012-01-27, 00:52:04,VALID,916.556,VALID,0,VALID,95.0106,VALID,0,VALID,19.3713,VALID,154,VALID,1.61523,
2012-01-27, 00:53:04,VALID,916.527,VALID,0,VALID,94.9496,VALID,0,VALID,19.4298,VALID,144,VALID,2.60742,
2012-01-27, 00:54:04,VALID,916.504,VALID,0,VALID,94.6371,VALID,0,VALID,19.5078,VALID,166,VALID,1.88984,
2012-01-27, 00:55:04,VALID,916.5,VALID,0,VALID,94.4008,VALID,0,VALID,19.5258,VALID,161,VALID,1.71719,
2012-01-27, 00:56:04,VALID,916.476,VALID,0,VALID,94.1873,VALID,0,VALID,19.5663,VALID,176,VALID,1.73672,
2012-01-27, 00:57:04,VALID,916.474,VALID,0,VALID,93.9967,VALID,0,VALID,19.5648,VALID,156,VALID,1.0832,
2012-01-27, 00:58:04,VALID,916.484,VALID,0,VALID,93.9052,VALID,0,VALID,19.5858,VALID,180,VALID,1.47773,
2012-01-27, 00:59:04,VALID,916.427,VALID,0,VALID,93.8061,VALID,0,VALID,19.5468,VALID,165,VALID,1.53945,
2012-01-27, 01:00:04,VALID,916.456,VALID,0,VALID,93.9052,VALID,0,VALID,19.5078,VALID,163,VALID,1.21758,
2012-01-27, 01:01:04,VALID,916.428,VALID,0,VALID,94.1263,VALID,0,VALID,19.4883,VALID,122,VALID,1.38359,
2012-01-27, 01:02:04,VALID,916.42,VALID,0,VALID,94.2026,VALID,0,VALID,19.5468,VALID,151,VALID,1.5625,
2012-01-27, 01:03:04,VALID,916.408,VALID,0,VALID,93.9662,VALID,0,VALID,19.5858,VALID,139,VALID,1.87227,
2012-01-27, 01:04:04,VALID,916.377,VALID,0,VALID,93.9205,VALID,0,VALID,19.6053,VALID,163,VALID,1.48867,
2012-01-27, 01:05:04,VALID,916.395,VALID,0,VALID,93.8747,VALID,0,VALID,19.5843,VALID,157,VALID,1.64961,
2012-01-27, 01:06:04,VALID,916.365,VALID,0,VALID,93.7985,VALID,0,VALID,19.6053,VALID,148,VALID,1.46328,
2012-01-27, 01:07:04,VALID,916.355,VALID,0,VALID,93.7375,VALID,0,VALID,19.6638,VALID,143,VALID,1.48867,
2012-01-27, 01:08:04,VALID,916.322,VALID,0,VALID,93.5774,VALID,0,VALID,19.6833,VALID,139,VALID,2.1082,
2012-01-27, 01:09:04,VALID,916.308,VALID,0,VALID,93.3945,VALID,0,VALID,19.7028,VALID,129,VALID,2.06211,
2012-01-27, 01:10:04,VALID,916.291,VALID,0,VALID,93.1658,VALID,0,VALID,19.7808,VALID,137,VALID,1.67891,
2012-01-27, 01:11:04,VALID,916.277,VALID,0,VALID,93.0819,VALID,0,VALID,19.7613,VALID,111,VALID,0.76875,
2012-01-27, 01:12:04,VALID,916.235,VALID,0,VALID,92.9294,VALID,0,VALID,19.8003,VALID,134,VALID,1.37344,
2012-01-27, 01:13:04,VALID,916.249,VALID,0,VALID,92.8456,VALID,0,VALID,19.8003,VALID,145,VALID,0.873047,
2012-01-27, 01:14:04,VALID,916.207,VALID,0,VALID,92.8456,VALID,0,VALID,19.8003,VALID,125,VALID,1.84102,
2012-01-27, 01:15:04,VALID,916.219,VALID,0,VALID,92.7389,VALID,0,VALID,19.8393,VALID,137,VALID,1.68281,
2012-01-27, 01:16:04,VALID,916.244,VALID,0,VALID,92.6474,VALID,0,VALID,19.8393,VALID,146,VALID,0.780078,
2012-01-27, 01:17:04,VALID,916.19,VALID,0,VALID,92.594,VALID,0,VALID,19.8393,VALID,128,VALID,1.25273,
2012-01-27, 01:18:04,VALID,916.238,VALID,0,VALID,92.5559,VALID,0,VALID,19.8393,VALID,117,VALID,0.969922,
2012-01-27, 01:19:04,VALID,916.243,VALID,0,VALID,92.5483,VALID,0,VALID,19.8393,VALID,162,VALID,1.06992,
2012-01-27, 01:20:04,VALID,916.227,VALID,0,VALID,92.4263,VALID,0,VALID,19.7793,VALID,84,VALID,0.900391,
2012-01-27, 01:21:04,VALID,916.204,VALID,0,VALID,92.5559,VALID,0,VALID,19.6818,VALID,84,VALID,0.923437,
2012-01-27, 01:22:04,VALID,916.156,VALID,0,VALID,92.8151,VALID,0,VALID,19.6053,VALID,84,VALID,0.967969,
2012-01-27, 01:23:04,VALID,916.175,VALID,0,VALID,93.2496,VALID,0,VALID,19.5078,VALID,84,VALID,1.18477,
2012-01-27, 01:24:04,VALID,916.143,VALID,0,VALID,93.5698,VALID,0,VALID,19.4298,VALID,84,VALID,0.942578,
2012-01-27, 01:25:04,VALID,916.157,VALID,0,VALID,93.829,VALID,0,VALID,19.3308,VALID,84,VALID,0.803906,
2012-01-27, 01:26:04,VALID,916.158,VALID,0,VALID,94.1263,VALID,0,VALID,19.2528,VALID,84,VALID,0.460938,
2012-01-27, 01:27:04,VALID,916.125,VALID,0,VALID,94.3474,VALID,0,VALID,19.2348,VALID,84,VALID,0.733984,
2012-01-27, 01:28:04,VALID,916.121,VALID,0,VALID,94.5837,VALID,0,VALID,19.1749,VALID,84,VALID,0.988672,
2012-01-27, 01:29:04,VALID,916.098,VALID,0,VALID,94.7972,VALID,0,VALID,19.1763,VALID,90,VALID,0.892578,
2012-01-27, 01:30:04,VALID,916.105,VALID,0,VALID,94.9649,VALID,0,VALID,19.1568,VALID,107,VALID,0.724219,
2012-01-27, 01:31:04,VALID,916.074,VALID,0,VALID,95.064,VALID,0,VALID,19.1554,VALID,112,VALID,0.951172,
2012-01-27, 01:32:04,VALID,916.078,VALID,0,VALID,95.1631,VALID,0,VALID,19.2139,VALID,107,VALID,1.53398,
2012-01-27, 01:33:04,VALID,916.091,VALID,0,VALID,95.1936,VALID,0,VALID,19.2933,VALID,109,VALID,1.16289,
2012-01-27, 01:34:04,VALID,916.085,VALID,0,VALID,95.0488,VALID,0,VALID,19.3323,VALID,109,VALID,1.27539,
2012-01-27, 01:35:04,VALID,916.08,VALID,0,VALID,94.9192,VALID,0,VALID,19.3308,VALID,121,VALID,1.03633,
2012-01-27, 01:36:04,VALID,916.097,VALID,0,VALID,94.82,VALID,0,VALID,19.3713,VALID,135,VALID,1.31016,
2012-01-27, 01:37:04,VALID,916.058,VALID,0,VALID,94.66,VALID,0,VALID,19.3503,VALID,128,VALID,0.664063,
2012-01-27, 01:38:04,VALID,916.069,VALID,0,VALID,94.5456,VALID,0,VALID,19.3518,VALID,113,VALID,0.707812,
2012-01-27, 01:39:04,VALID,916.041,VALID,0,VALID,94.599,VALID,0,VALID,19.3713,VALID,113,VALID,0.901953,
2012-01-27, 01:40:04,VALID,916.02,VALID,0,VALID,94.6905,VALID,0,VALID,19.3713,VALID,113,VALID,1.09219,
2012-01-27, 01:41:04,VALID,916.01,VALID,0,VALID,94.6752,VALID,0,VALID,19.4103,VALID,113,VALID,0.680859,
2012-01-27, 01:42:04,VALID,915.995,VALID,0,VALID,94.5532,VALID,0,VALID,19.4493,VALID,113,VALID,0.787109,
2012-01-27, 01:43:04,VALID,915.975,VALID,0,VALID,94.477,VALID,0,VALID,19.4283,VALID,113,VALID,0.601953,
2012-01-27, 01:44:04,VALID,915.928,VALID,0,VALID,94.4694,VALID,0,VALID,19.4493,VALID,113,VALID,0.553516,
2012-01-27, 01:45:04,VALID,915.944,VALID,0,VALID,94.4922,VALID,0,VALID,19.4688,VALID,113,VALID,0.344922,
2012-01-27, 01:46:04,VALID,915.954,VALID,0,VALID,94.4617,VALID,0,VALID,19.4883,VALID,113,VALID,0.197656,
2012-01-27, 01:47:04,VALID,915.935,VALID,0,VALID,94.4313,VALID,0,VALID,19.4493,VALID,114,VALID,0.00195313,
2012-01-27, 01:48:04,VALID,915.945,VALID,0,VALID,94.4465,VALID,0,VALID,19.4298,VALID,113,VALID,0.319922,
2012-01-27, 01:49:04,VALID,915.946,VALID,0,VALID,94.4541,VALID,0,VALID,19.3908,VALID,113,VALID,0.195703,
2012-01-27, 01:50:04,VALID,915.967,VALID,0,VALID,94.5304,VALID,0,VALID,19.3713,VALID,113,VALID,0.175391,
2012-01-27, 01:51:04,VALID,915.942,VALID,0,VALID,94.5761,VALID,0,VALID,19.3713,VALID,113,VALID,0.319531,
2012-01-27, 01:52:04,VALID,915.943,VALID,0,VALID,94.5837,VALID,0,VALID,19.3518,VALID,114,VALID,0.364844,
2012-01-27, 01:53:04,VALID,915.905,VALID,0,VALID,94.5532,VALID,0,VALID,19.2918,VALID,113,VALID,0.323047,
2012-01-27, 01:54:04,VALID,915.913,VALID,0,VALID,94.6142,VALID,0,VALID,19.2738,VALID,114,VALID,0.582422,
2012-01-27, 01:55:04,VALID,915.931,VALID,0,VALID,94.6905,VALID,0,VALID,19.2753,VALID,113,VALID,0.613672,
2012-01-27, 01:56:04,VALID,915.91,VALID,0,VALID,94.7667,VALID,0,VALID,19.2543,VALID,114,VALID,0.772266,
2012-01-27, 01:57:04,VALID,915.92,VALID,0,VALID,94.8353,VALID,0,VALID,19.2543,VALID,114,VALID,0.754687,
2012-01-27, 01:58:04,VALID,915.943,VALID,0,VALID,94.8658,VALID,0,VALID,19.2543,VALID,113,VALID,0.906641,
2012-01-27, 01:59:04,VALID,915.91,VALID,0,VALID,94.9573,VALID,0,VALID,19.2543,VALID,113,VALID,0.601172,
2012-01-27, 02:00:04,VALID,915.915,VALID,0,VALID,95.0106,VALID,0,VALID,19.2334,VALID,114,VALID,0.384375,
2012-01-27, 02:01:04,VALID,915.921,VALID,0,VALID,94.9496,VALID,0,VALID,19.2348,VALID,114,VALID,0.673828,
2012-01-27, 02:02:04,VALID,915.928,VALID,0,VALID,94.9649,VALID,0,VALID,19.2348,VALID,164,VALID,1.07344,
2012-01-27, 02:03:04,VALID,915.91,VALID,0,VALID,94.942,VALID,0,VALID,19.2153,VALID,165,VALID,1.02383,
2012-01-27, 02:04:04,VALID,915.931,VALID,0,VALID,94.942,VALID,0,VALID,19.1778,VALID,165,VALID,0.824219,
2012-01-27, 02:05:04,VALID,915.916,VALID,0,VALID,94.9801,VALID,0,VALID,19.1373,VALID,165,VALID,0.921875,
2012-01-27, 02:06:04,VALID,915.908,VALID,0,VALID,95.0259,VALID,0,VALID,19.0983,VALID,165,VALID,0.660156,
2012-01-27, 02:07:04,VALID,915.898,VALID,0,VALID,95.0792,VALID,0,VALID,19.0998,VALID,165,VALID,0.657031,
2012-01-27, 02:08:04,VALID,915.909,VALID,0,VALID,95.247,VALID,0,VALID,19.0983,VALID,165,VALID,1.03125,
2012-01-27, 02:09:04,VALID,915.903,VALID,0,VALID,95.2546,VALID,0,VALID,19.1178,VALID,165,VALID,0.677344,
2012-01-27, 02:10:04,VALID,915.877,VALID,0,VALID,95.2775,VALID,0,VALID,19.1178,VALID,165,VALID,0.70625,
2012-01-27, 02:11:04,VALID,915.841,VALID,0,VALID,95.2698,VALID,0,VALID,19.1178,VALID,165,VALID,0.591016,
2012-01-27, 02:12:04,VALID,915.829,VALID,0,VALID,95.3079,VALID,0,VALID,19.1778,VALID,165,VALID,1.05391,
2012-01-27, 02:13:04,VALID,915.82,VALID,0,VALID,95.2698,VALID,0.107441,VALID,19.1554,VALID,134,VALID,1.08711,
2012-01-27, 02:14:04,VALID,915.779,VALID,0,VALID,95.2393,VALID,0,VALID,19.1554,VALID,131,VALID,1.16289,
2012-01-27, 02:15:04,VALID,915.754,VALID,0,VALID,95.2698,VALID,0,VALID,19.1554,VALID,131,VALID,1.09648,
2012-01-27, 02:16:04,VALID,915.75,VALID,0,VALID,95.2241,VALID,0,VALID,19.1749,VALID,131,VALID,1.09727,
2012-01-27, 02:17:04,VALID,915.744,VALID,0,VALID,95.247,VALID,0.107441,VALID,19.1944,VALID,131,VALID,1.01758,
2012-01-27, 02:18:04,VALID,915.726,VALID,0,VALID,95.1783,VALID,0.107441,VALID,19.2139,VALID,131,VALID,0.982422,
2012-01-27, 02:19:04,VALID,915.743,VALID,0,VALID,95.125,VALID,0,VALID,19.2543,VALID,131,VALID,0.644531,
2012-01-27, 02:20:04,VALID,915.732,VALID,0,VALID,95.0183,VALID,0.107441,VALID,19.2139,VALID,131,VALID,0.530469,
2012-01-27, 02:21:04,VALID,915.692,VALID,0,VALID,94.9268,VALID,0.107441,VALID,19.1749,VALID,131,VALID,0.371875,
2012-01-27, 02:22:04,VALID,915.695,VALID,0,VALID,94.9801,VALID,0.107441,VALID,19.1554,VALID,131,VALID,0.176563,
2012-01-27, 02:23:04,VALID,915.649,VALID,0,VALID,95.0411,VALID,0,VALID,19.1568,VALID,131,VALID,0.25,
2012-01-27, 02:24:04,VALID,915.639,VALID,0,VALID,95.125,VALID,0.107441,VALID,19.1373,VALID,131,VALID,0.357422,
2012-01-27, 02:25:04,VALID,915.654,VALID,0,VALID,95.1097,VALID,0.107441,VALID,19.0774,VALID,131,VALID,0.6375,
2012-01-27, 02:26:04,VALID,915.651,VALID,0,VALID,95.1631,VALID,0.107441,VALID,19.0384,VALID,131,VALID,0.21875,
2012-01-27, 02:27:04,VALID,915.675,VALID,0,VALID,95.186,VALID,0.107441,VALID,18.9994,VALID,131,VALID,0.366797,
2012-01-27, 02:28:04,VALID,915.667,VALID,0,VALID,95.2393,VALID,0,VALID,18.9814,VALID,131,VALID,0.174609,
2012-01-27, 02:29:04,VALID,915.67,VALID,0,VALID,95.2851,VALID,0,VALID,18.9619,VALID,131,VALID,0.207813,
2012-01-27, 02:30:04,VALID,915.641,VALID,0,VALID,95.4071,VALID,0,VALID,18.9229,VALID,131,VALID,0.338281,
2012-01-27, 02:31:04,VALID,915.619,VALID,0,VALID,95.4833,VALID,0,VALID,18.9034,VALID,131,VALID,0.455078,
2012-01-27, 02:32:04,VALID,915.602,VALID,0,VALID,95.5367,VALID,0,VALID,18.8644,VALID,131,VALID,0.740625,
2012-01-27, 02:33:04,VALID,915.55,VALID,0,VALID,95.6205,VALID,0,VALID,18.824,VALID,131,VALID,0.989844,
2012-01-27, 02:34:04,VALID,915.56,VALID,0,VALID,95.7654,VALID,0,VALID,18.8254,VALID,131,VALID,0.971484,
2012-01-27, 02:35:04,VALID,915.563,VALID,0,VALID,95.8797,VALID,0,VALID,18.8449,VALID,131,VALID,0.861328,
2012-01-27, 02:36:04,VALID,915.581,VALID,0,VALID,95.9331,VALID,0,VALID,18.8254,VALID,131,VALID,0.794141,
2012-01-27, 02:37:04,VALID,915.586,VALID,0,VALID,95.9941,VALID,0,VALID,18.8254,VALID,131,VALID,0.702734,
2012-01-27, 02:38:04,VALID,915.588,VALID,0,VALID,96.055,VALID,0,VALID,18.8463,VALID,131,VALID,0.763672,
2012-01-27, 02:39:04,VALID,915.554,VALID,0,VALID,96.0779,VALID,0,VALID,18.8268,VALID,131,VALID,0.619141,
2012-01-27, 02:40:04,VALID,915.591,VALID,0,VALID,96.1084,VALID,0,VALID,18.7864,VALID,131,VALID,0.726563,
2012-01-27, 02:41:04,VALID,915.529,VALID,0,VALID,96.1465,VALID,0,VALID,18.7669,VALID,131,VALID,0.829297,
2012-01-27, 02:42:04,VALID,915.518,VALID,0,VALID,96.1618,VALID,0,VALID,18.7474,VALID,131,VALID,0.797266,
2012-01-27, 02:43:04,VALID,915.484,VALID,0,VALID,96.1694,VALID,0,VALID,18.7279,VALID,131,VALID,0.783984,
2012-01-27, 02:44:04,VALID,915.479,VALID,0,VALID,96.2533,VALID,0,VALID,18.7279,VALID,131,VALID,0.685156,
2012-01-27, 02:45:04,VALID,915.465,VALID,0,VALID,96.3142,VALID,0,VALID,18.7474,VALID,131,VALID,0.771094,
2012-01-27, 02:46:04,VALID,915.467,VALID,0,VALID,96.3752,VALID,0,VALID,18.7279,VALID,131,VALID,0.835547,
2012-01-27, 02:47:04,VALID,915.442,VALID,0,VALID,96.3981,VALID,0,VALID,18.7488,VALID,131,VALID,0.757813,
2012-01-27, 02:48:04,VALID,915.443,VALID,0,VALID,96.4286,VALID,0,VALID,18.7279,VALID,131,VALID,0.800391,
2012-01-27, 02:49:04,VALID,915.44,VALID,0,VALID,96.421,VALID,0,VALID,18.7279,VALID,131,VALID,0.832031,
2012-01-27, 02:50:04,VALID,915.441,VALID,0,VALID,96.4743,VALID,0,VALID,18.7279,VALID,130,VALID,0.793359,
2012-01-27, 02:51:04,VALID,915.415,VALID,0,VALID,96.4972,VALID,0,VALID,18.7279,VALID,138,VALID,0.914063,
2012-01-27, 02:52:04,VALID,915.445,VALID,0,VALID,96.5048,VALID,0,VALID,18.7279,VALID,143,VALID,0.773438,
2012-01-27, 02:53:04,VALID,915.48,VALID,0,VALID,96.5048,VALID,0,VALID,18.7084,VALID,143,VALID,0.513672,
2012-01-27, 02:54:04,VALID,915.478,VALID,0,VALID,96.5201,VALID,0,VALID,18.6889,VALID,143,VALID,0.650781,
2012-01-27, 02:55:04,VALID,915.503,VALID,0,VALID,96.5277,VALID,0,VALID,18.6889,VALID,143,VALID,0.807813,
2012-01-27, 02:56:04,VALID,915.499,VALID,0,VALID,96.5811,VALID,0,VALID,18.7279,VALID,143,VALID,0.612109,
2012-01-27, 02:57:04,VALID,915.501,VALID,0,VALID,96.5734,VALID,0,VALID,18.7488,VALID,148,VALID,0.577734,
2012-01-27, 02:58:04,VALID,915.478,VALID,0,VALID,96.5963,VALID,0,VALID,18.7265,VALID,148,VALID,0.508984,
2012-01-27, 02:59:04,VALID,915.471,VALID,0,VALID,96.6115,VALID,0.107441,VALID,18.746,VALID,148,VALID,0.739844,
2012-01-27, 03:00:04,VALID,915.481,VALID,0,VALID,96.6344,VALID,0,VALID,18.746,VALID,148,VALID,0.489062,
2012-01-27, 03:01:04,VALID,915.482,VALID,0,VALID,96.6192,VALID,0.107441,VALID,18.7669,VALID,151,VALID,0.731641,
2012-01-27, 03:02:04,VALID,915.503,VALID,0,VALID,96.6039,VALID,0,VALID,18.707,VALID,151,VALID,0.678906,
2012-01-27, 03:03:04,VALID,915.47,VALID,0,VALID,96.5811,VALID,0,VALID,18.6875,VALID,151,VALID,0.544141,
2012-01-27, 03:04:04,VALID,915.43,VALID,0,VALID,96.5887,VALID,0,VALID,18.7084,VALID,151,VALID,0.8125,
2012-01-27, 03:05:04,VALID,915.422,VALID,0,VALID,96.6268,VALID,0.107441,VALID,18.707,VALID,151,VALID,0.602344,
2012-01-27, 03:06:04,VALID,915.401,VALID,0,VALID,96.6497,VALID,0.107441,VALID,18.707,VALID,151,VALID,0.728516,
2012-01-27, 03:07:04,VALID,915.421,VALID,0,VALID,96.6344,VALID,0.107441,VALID,18.6875,VALID,149,VALID,1.02227,
2012-01-27, 03:08:04,VALID,915.414,VALID,0,VALID,96.6344,VALID,0.107441,VALID,18.668,VALID,142,VALID,0.920703,
2012-01-27, 03:09:04,VALID,915.416,VALID,0,VALID,96.6649,VALID,0.107441,VALID,18.668,VALID,142,VALID,0.969141,
2012-01-27, 03:10:04,VALID,915.383,VALID,0,VALID,96.6725,VALID,0,VALID,18.6875,VALID,142,VALID,0.863281,
2012-01-27, 03:11:04,VALID,915.403,VALID,0,VALID,96.7411,VALID,0.107441,VALID,18.707,VALID,142,VALID,0.876172,
2012-01-27, 03:12:04,VALID,915.381,VALID,0,VALID,96.7793,VALID,0.107441,VALID,18.707,VALID,142,VALID,1.15078,
2012-01-27, 03:13:04,VALID,915.403,VALID,0,VALID,96.7259,VALID,0.107441,VALID,18.7265,VALID,142,VALID,0.988672,
2012-01-27, 03:14:04,VALID,915.408,VALID,0,VALID,96.7259,VALID,0.107441,VALID,18.7279,VALID,124,VALID,1.14336,
2012-01-27, 03:15:04,VALID,915.445,VALID,0,VALID,96.764,VALID,0.107441,VALID,18.707,VALID,124,VALID,1.03516,
2012-01-27, 03:16:04,VALID,915.405,VALID,0,VALID,96.7411,VALID,0,VALID,18.7279,VALID,124,VALID,0.992188,
2012-01-27, 03:17:04,VALID,915.381,VALID,0,VALID,96.7564,VALID,0.107441,VALID,18.7265,VALID,124,VALID,1.45508,
2012-01-27, 03:18:04,VALID,915.381,VALID,0,VALID,96.7564,VALID,0.107441,VALID,18.7265,VALID,124,VALID,1.22539,
2012-01-27, 03:19:04,VALID,915.382,VALID,0,VALID,96.764,VALID,0,VALID,18.707,VALID,124,VALID,1.3375,
2012-01-27, 03:20:04,VALID,915.369,VALID,0,VALID,96.7869,VALID,0,VALID,18.7265,VALID,124,VALID,1.20938,
2012-01-27, 03:21:04,VALID,915.406,VALID,0,VALID,96.7488,VALID,0,VALID,18.7279,VALID,124,VALID,0.944531,
2012-01-27, 03:22:04,VALID,915.406,VALID,0,VALID,96.703,VALID,0.107441,VALID,18.6875,VALID,124,VALID,0.948438,
2012-01-27, 03:23:04,VALID,915.39,VALID,0,VALID,96.7183,VALID,0.107441,VALID,18.6875,VALID,124,VALID,1.10352,
2012-01-27, 03:24:04,VALID,915.398,VALID,0,VALID,96.6725,VALID,0.107441,VALID,18.6875,VALID,124,VALID,0.839063,
2012-01-27, 03:25:04,VALID,915.405,VALID,0,VALID,96.6954,VALID,0,VALID,18.6485,VALID,125,VALID,0.946484,
2012-01-27, 03:26:04,VALID,915.442,VALID,0,VALID,96.6802,VALID,0,VALID,18.629,VALID,124,VALID,0.998047,
2012-01-27, 03:27:04,VALID,915.419,VALID,0,VALID,96.7411,VALID,0,VALID,18.6694,VALID,124,VALID,0.856641,
2012-01-27, 03:28:04,VALID,915.465,VALID,0,VALID,96.7411,VALID,0,VALID,18.668,VALID,124,VALID,0.90625,
2012-01-27, 03:29:04,VALID,915.453,VALID,0,VALID,96.6649,VALID,0,VALID,18.6499,VALID,124,VALID,0.871484,
2012-01-27, 03:30:04,VALID,915.462,VALID,0,VALID,96.6573,VALID,0.107441,VALID,18.6095,VALID,124,VALID,1.11055,
2012-01-27, 03:31:04,VALID,915.514,VALID,0,VALID,96.5963,VALID,0,VALID,18.5511,VALID,124,VALID,0.950391,
2012-01-27, 03:32:04,VALID,915.502,VALID,0,VALID,96.6802,VALID,0.107441,VALID,18.572,VALID,124,VALID,0.842578,
2012-01-27, 03:33:04,VALID,915.479,VALID,0,VALID,96.7335,VALID,0.107441,VALID,18.5511,VALID,124,VALID,1.23594,
2012-01-27, 03:34:04,VALID,915.475,VALID,0,VALID,96.8098,VALID,0.107441,VALID,18.5511,VALID,125,VALID,1.31758,
2012-01-27, 03:35:04,VALID,915.491,VALID,0,VALID,96.8098,VALID,0.107441,VALID,18.5511,VALID,123,VALID,1.42773,
2012-01-27, 03:36:04,VALID,915.476,VALID,0,VALID,96.8021,VALID,0,VALID,18.5121,VALID,126,VALID,1.22891,
2012-01-27, 03:37:04,VALID,915.469,VALID,0,VALID,96.8707,VALID,0.107441,VALID,18.5525,VALID,126,VALID,1.36953,
2012-01-27, 03:38:04,VALID,915.483,VALID,0,VALID,96.9012,VALID,0.107441,VALID,18.572,VALID,126,VALID,1.25078,
2012-01-27, 03:39:04,VALID,915.461,VALID,0,VALID,96.886,VALID,0,VALID,18.5525,VALID,127,VALID,0.998438,
2012-01-27, 03:40:04,VALID,915.458,VALID,0,VALID,96.8784,VALID,0.107441,VALID,18.5316,VALID,126,VALID,1.10547,
2012-01-27, 03:41:04,VALID,915.46,VALID,0,VALID,96.8784,VALID,0.107441,VALID,18.4926,VALID,126,VALID,1.22656,
2012-01-27, 03:42:04,VALID,915.456,VALID,0,VALID,96.9012,VALID,0.107441,VALID,18.4731,VALID,126,VALID,1.11797,
2012-01-27, 03:43:04,VALID,915.438,VALID,0,VALID,96.9317,VALID,0,VALID,18.494,VALID,126,VALID,1.14688,